Location: Newark
(52.3500°N, 175.9667°E)
Time: 22:46:11
(UTC+00:00)

Altair - Pass Details

Date: 27 April 2021
Orbit: 1501 x 1683 km, 47.2° (Epoch: 06 May)

Event Time Altitude Azimuth Distance (km) Brightness Sun altitude
Rises 19:59:18 0° 274° (W) 4,863 9.6 27.2°
Reaches altitude 10° 20:02:31 10° 271° (W) 3,852 9.1 27.6°
Maximum altitude 20:12:02 60° 195° (SSW) 1,774 8.3 29.0°
Drops below altitude 10° 20:21:11 10° 119° (ESE) 3,707 11.0 30.4°
Sets 20:24:13 0° 116° (ESE) 4,670 11.2 30.8°
